Regional Weather Roundup
Issued by NWS Boston, MA

Home | Current Version | Previous Version | Text Only | Print | Product List | Glossary On
Versions: 1 2 3 4 5 6 7 8 9 10 11 12 13 14 15 16 17 18 19 20 21 22 23 24 25 26 27 28 29 30 31 32 33 34 35 36 37 38 39 40 41 42 43 44 45 46 47 48 49 50
000
ASUS41 KBOX 151010
RWRBOX

REGIONAL WEATHER ROUNDUP
NATIONAL WEATHER SERVICE TAUNTON MA
500 AM EST FRI DEC 15 2017

NOTE:  "FAIR" INDICATES FEW OR NO CLOUDS BELOW 12,000 FEET WITH NO
SIGNIFICANT WEATHER AND/OR OBSTRUCTIONS TO VISIBILITY.

MAZALL-151100-
EASTERN MASSACHUSETTS

CITY           SKY/WX    TMP DP  RH WIND       PRES   REMARKS
BOSTON         MOCLDY    19   7  59 W7        30.06S WCI  10
BEVERLY        CLEAR     15   6  67 W5        30.04R WCI   8
LAWRENCE       CLEAR     15   6  67 SW3       30.06R
BEDFORD        PTCLDY    13   5  70 SW3       30.04R
BLUE HILL        N/A     14   4  64 SW8       30.01R WCI   3
NORWOOD        CLEAR     11   6  81 CALM      30.07R
MARSHFIELD     CLEAR     14   7  73 CALM      30.07R
PLYMOUTH       PTCLDY    11   4  73 CALM      30.06S
TAUNTON        CLEAR      7   4  87 CALM      30.06S
NEW BEDFORD    PTCLDY    10   6  84 CALM      30.07R
$$

MAZALL-151100-
CAPE COD AND THE ISLANDS

CITY           SKY/WX    TMP DP  RH WIND       PRES   REMARKS
FALMOUTH       CLEAR     14   5  67 W5        30.07R WCI   6
HYANNIS        CLEAR     16   6  65 W5        30.06R WCI   9
CHATHAM        CLEAR     15   8  73 W3        30.07S
PROVINCETOWN   CLEAR     21  14  74 W13       30.06  WCI   9
NANTUCKET      CLEAR     19  12  74 W7        30.07R WCI  10
MARTHAS VNYRD  CLEAR    N/A N/A N/A CALM      30.07R
$$

MAZALL-151100-
CENTRAL AND WESTERN MASSACHUSETTS

CITY           SKY/WX    TMP DP  RH WIND       PRES   REMARKS
WORCESTER      CLEAR     12   4  70 W10       29.97R WCI  -1
FITCHBURG      PTCLDY    17   6  62 VRB6      30.03S WCI   9
ORANGE         NOT AVBL
SPRINGFIELD    PTCLDY    12   6  78 S3        30.05S
WESTFIELD      PTCLDY    11   7  84 E3        30.06S
NORTH ADAMS    CLOUDY     9   5  84 CALM      30.03S
PITTSFIELD     CLOUDY     7   2  80 W6        29.97F WCI  -3
$$

RIZALL-151100-
RHODE ISLAND

CITY           SKY/WX    TMP DP  RH WIND       PRES   REMARKS
PROVIDENCE     CLEAR     13   6  74 SW6       30.08S WCI   4
NEWPORT        CLEAR     17   7  64 W5        30.07R WCI  10
BLOCK ISLAND   CLEAR     21  12  68 NW10      30.09R WCI  10
SMITHFIELD     CLEAR     11   5  77 CALM      30.04R
WESTERLY       CLEAR     17   6  62 CALM      30.09R
$$

CTZALL-151100-
CONNECTICUT

CITY           SKY/WX    TMP DP  RH WIND       PRES   REMARKS
BRADLEY INTL   CLOUDY    12   5  73 S5        30.08R WCI   4
HARTFORD       CLOUDY    13   5  70 S3        30.10S
BRIDGEPORT     CLEAR     18   6  59 NW6       30.09F WCI  10
DANBURY        CLOUDY    11   4  73 CALM      30.06F
GROTON         CLEAR     16   5  62 W6        30.09S WCI   7
NEW HAVEN      PTCLDY    20   5  52 W5        30.09F WCI  13
CHESTER        FAIR      12   3  67 CALM      30.06R
MERIDEN        CLOUDY     6   4  91 CALM      30.09S
WILLIMANTIC    CLOUDY     8   3  80 CALM      30.07S
OXFORD         CLOUDY     8   2  76 CALM      30.03F
$$

MEZ002-015-021-024-NHZ003-005-008-011-012-014-VTZ005-008-151100-
NORTHERN NEW ENGLAND

CITY           SKY/WX    TMP DP  RH WIND       PRES   REMARKS
PORTLAND ME    CLEAR     10   0  63 CALM      30.00R
BANGOR ME      CLEAR      8  -3  61 SW9       29.94R WCI  -5
CONCORD NH     CLEAR      3  -2  79 CALM      30.01R
MANCHESTER NH  PTCLDY    14   4  64 SW6       30.01R WCI   5
NASHUA NH      CLEAR      5   1  83 CALM      30.04R
PORTSMOUTH NH  PTCLDY    13   3  64 W3        30.01R
JAFFREY NH     CLEAR      9   3  77 S7        29.97R WCI  -2
KEENE NH       CLOUDY    -2  -4  91 CALM      30.04R
BURLINGTON VT  CLEAR      0  -5  79 CALM      30.01S
MT. WASHINGTON PTCLDY   -11 -17  77 W64G77      N/A  WCI -50
$$

NYZ052-076-151100-
EASTERN NEW YORK

CITY           SKY/WX    TMP DP  RH WIND       PRES   REMARKS
ALBANY         CLOUDY    10   4  76 CALM      30.07S
NEW YORK CITY  MOCLDY    23   8  52 NW8       30.09F WCI  14
$$

ANZALL-151100-
MARINE OBSERVATIONS

STATION/POSITION TIME  TEMP    WIND        PRES    VSBY  WAVE
                       AIR SEA DIR/SP/G                  HT/PER
                 (UTC) (F)     (DEG/KT/KT) (MB)    (MI)  (FT/S)
BOSTON BUOY      0950   24 47  290/ 16/ 19 1016.9S         2/ 3
BUZZARDS BAY     0900   22     300/ 13/ 15 1018.9S
NANTUCKET SOUND  0950   23 42  310/ 16/ 19 1017.8F         2/ 4
MASS BAY-STELLWA 0904   22 47  300/ 17/ 23 1016.9R         2/ 4
ISLE OF SHOALS   0900   18     290/ 16/ 19 1016.2R
S OF BLOCK IS    0943      53                N/A           6/ 8
$$

......................KEY.........................
  SKY/WX - SKY CONDITION/PRESENT WEATHER
  TMP    - TEMPERATURE IN FAHRENHEIT
  DWPT   - DEWPOINT IN FAHRENHEIT
  RH     - RELATIVE HUMIDITY IN PERCENT
  WIND   - DIRECTION AND SPEED IN MPH
  PRES   - MEAN SEA LEVEL PRESSURE IN INCHES OF HG
  WCI    - WIND CHILL INDEX
  VSB    - VISIBILITY IN MILES
  HX     - HEAT INDEX
  TC     - TEMPERATURE IN CELSIUS
  VRB    - VARIABLE WIND DIRECTION
  N/A    - NOT AVAILABLE



USA.gov is the U.S. government's official web portal to all federal, state and local government web resources and services.